date,time,SUV Intensity [MED/Hr],UV Index,Daily total [MED],Since Last [MED]
14/04/2023,00:00:35,0.000,0.0,0.0,0.0
14/04/2023,00:01:35,-0.000,0.0,0.0,0.0
14/04/2023,00:02:35,0.000,0.0,0.0,0.0
14/04/2023,00:03:35,-0.000,0.0,0.0,0.0
14/04/2023,00:04:35,-0.000,0.0,0.0,0.0
14/04/2023,00:05:34,-0.000,0.0,0.0,0.0
14/04/2023,00:06:35,0.000,0.0,0.0,0.0
14/04/2023,00:07:35,0.000,0.0,0.0,0.0
14/04/2023,00:08:35,-0.000,0.0,0.0,0.0
14/04/2023,00:09:35,0.000,0.0,0.0,0.0
14/04/2023,00:10:35,0.000,0.0,0.0,0.0
14/04/2023,00:11:35,-0.000,0.0,0.0,0.0
14/04/2023,00:12:35,0.000,0.0,0.0,0.0
14/04/2023,00:13:35,0.001,0.0,0.0,0.0
14/04/2023,00:14:35,-0.000,0.0,0.0,0.0
14/04/2023,00:15:35,0.000,0.0,0.0,0.0
14/04/2023,00:16:35,0.000,0.0,0.0,0.0
14/04/2023,00:17:35,0.000,0.0,0.0,0.0
14/04/2023,00:18:35,-0.000,0.0,0.0,0.0
14/04/2023,00:19:35,-0.000,0.0,0.0,0.0
14/04/2023,00:20:35,0.000,0.0,0.0,0.0
14/04/2023,00:21:35,-0.000,0.0,0.0,0.0
14/04/2023,00:22:35,-0.000,0.0,0.0,0.0
14/04/2023,00:23:35,0.000,0.0,0.0,0.0
14/04/2023,00:24:35,0.000,0.0,0.0,0.0
14/04/2023,00:25:35,0.000,0.0,0.0,0.0
14/04/2023,00:26:35,0.000,0.0,0.0,0.0
14/04/2023,00:27:35,0.000,0.0,0.0,0.0
14/04/2023,00:28:35,0.000,0.0,0.0,0.0
14/04/2023,00:29:35,0.000,0.0,0.0,0.0
14/04/2023,00:30:35,-0.000,0.0,0.0,0.0
14/04/2023,00:31:34,0.000,0.0,0.0,0.0
14/04/2023,00:32:34,-0.000,0.0,0.0,0.0
14/04/2023,00:33:34,0.000,0.0,0.0,0.0
14/04/2023,00:34:35,0.000,0.0,0.0,0.0
14/04/2023,00:35:35,-0.000,0.0,0.0,0.0
14/04/2023,00:36:35,0.000,0.0,0.0,0.0
14/04/2023,00:37:35,0.000,0.0,0.0,0.0
14/04/2023,00:38:35,-0.000,0.0,0.0,0.0
14/04/2023,00:39:35,-0.000,0.0,0.0,0.0
14/04/2023,00:40:36,-0.000,0.0,0.0,0.0
14/04/2023,00:41:35,-0.000,0.0,0.0,0.0
14/04/2023,00:42:35,-0.000,0.0,0.0,0.0
14/04/2023,00:43:34,0.001,0.0,0.0,0.0
14/04/2023,00:44:34,0.000,0.0,0.0,0.0
14/04/2023,00:45:35,0.000,0.0,0.0,0.0
14/04/2023,00:46:37,0.001,0.0,0.0,0.0
14/04/2023,00:47:34,0.000,0.0,0.0,0.0
14/04/2023,00:48:35,-0.001,0.0,0.0,0.0
14/04/2023,00:49:35,0.000,0.0,0.0,0.0
14/04/2023,00:50:35,0.000,0.0,0.0,0.0
14/04/2023,00:51:35,0.000,0.0,0.0,0.0
14/04/2023,00:52:35,0.000,0.0,0.0,0.0
14/04/2023,00:53:35,0.000,0.0,0.0,0.0
14/04/2023,00:54:35,0.000,0.0,0.0,0.0
14/04/2023,00:55:35,0.000,0.0,0.0,0.0
14/04/2023,00:56:35,0.000,0.0,0.0,0.0
14/04/2023,00:57:35,0.000,0.0,0.0,0.0
14/04/2023,00:58:34,0.001,0.0,0.0,0.0
14/04/2023,00:59:35,0.000,0.0,0.0,0.0
14/04/2023,01:00:35,0.000,0.0,0.0,0.0
14/04/2023,01:01:35,0.000,0.0,0.0,0.0
14/04/2023,01:02:35,0.000,0.0,0.0,0.0
14/04/2023,01:03:35,-0.000,0.0,0.0,0.0
14/04/2023,01:04:35,-0.000,0.0,0.0,0.0
14/04/2023,01:05:35,-0.000,0.0,0.0,0.0
14/04/2023,01:06:34,-0.000,0.0,0.0,0.0
14/04/2023,01:07:35,0.000,0.0,0.0,0.0
14/04/2023,01:08:35,0.000,0.0,0.0,0.0
14/04/2023,01:09:35,0.000,0.0,0.0,0.0
14/04/2023,01:10:34,0.000,0.0,0.0,0.0
14/04/2023,01:11:35,0.000,0.0,0.0,0.0
14/04/2023,01:12:34,-0.000,0.0,0.0,0.0
14/04/2023,01:13:35,0.001,0.0,0.0,0.0
14/04/2023,01:14:35,0.001,0.0,0.0,0.0
14/04/2023,01:15:35,0.000,0.0,0.0,0.0
14/04/2023,01:16:35,0.000,0.0,0.0,0.0
14/04/2023,01:17:35,-0.000,0.0,0.0,0.0
14/04/2023,01:18:34,0.000,0.0,0.0,0.0
14/04/2023,01:19:35,0.000,0.0,0.0,0.0
14/04/2023,01:20:35,0.000,0.0,0.0,0.0
14/04/2023,01:21:35,0.001,0.0,0.0,0.0
14/04/2023,01:22:35,0.000,0.0,0.0,0.0
14/04/2023,01:23:35,0.000,0.0,0.0,0.0
14/04/2023,01:24:36,0.001,0.0,0.0,0.0
14/04/2023,01:25:34,0.000,0.0,0.0,0.0
14/04/2023,01:26:35,0.000,0.0,0.0,0.0
14/04/2023,01:27:35,0.000,0.0,0.0,0.0
14/04/2023,01:28:35,-0.000,0.0,0.0,0.0
14/04/2023,01:29:35,0.000,0.0,0.0,0.0
14/04/2023,01:30:35,0.000,0.0,0.0,0.0
14/04/2023,01:31:35,0.000,0.0,0.0,0.0
14/04/2023,01:32:34,0.000,0.0,0.0,0.0
14/04/2023,01:33:35,-0.000,0.0,0.0,0.0
14/04/2023,01:34:35,0.000,0.0,0.0,0.0
14/04/2023,01:35:35,0.000,0.0,0.0,0.0
14/04/2023,01:36:35,0.000,0.0,0.0,0.0
14/04/2023,01:37:35,0.000,0.0,0.0,0.0
14/04/2023,01:38:35,0.000,0.0,0.0,0.0
14/04/2023,01:39:35,0.000,0.0,0.0,0.0
14/04/2023,01:40:35,0.001,0.0,0.0,0.0
14/04/2023,01:41:35,0.000,0.0,0.0,0.0
14/04/2023,01:42:34,0.001,0.0,0.0,0.0
14/04/2023,01:43:57,0.000,0.0,0.0,0.0
14/04/2023,01:45:35,0.001,0.0,0.0,0.0
14/04/2023,01:46:35,0.000,0.0,0.0,0.0
14/04/2023,01:47:35,0.000,0.0,0.0,0.0
14/04/2023,01:48:35,0.000,0.0,0.0,0.0
14/04/2023,01:49:35,0.000,0.0,0.0,0.0
14/04/2023,01:50:35,0.000,0.0,0.0,0.0
14/04/2023,01:51:35,0.000,0.0,0.0,0.0
14/04/2023,01:52:35,-0.000,0.0,0.0,0.0
14/04/2023,01:53:35,-0.000,0.0,0.0,0.0
14/04/2023,01:54:35,-0.000,0.0,0.0,0.0
14/04/2023,01:55:35,0.000,0.0,0.0,0.0
14/04/2023,01:56:35,0.000,0.0,0.0,0.0
14/04/2023,01:57:35,-0.001,0.0,0.0,0.0
14/04/2023,01:58:35,0.000,0.0,0.0,0.0
14/04/2023,01:59:35,-0.000,0.0,0.0,0.0
14/04/2023,02:00:35,-0.000,0.0,0.0,0.0
14/04/2023,02:01:35,0.000,0.0,0.0,0.0
14/04/2023,02:02:35,0.000,0.0,0.0,0.0
14/04/2023,02:03:35,0.000,0.0,0.0,0.0
14/04/2023,02:04:35,0.000,0.0,0.0,0.0
14/04/2023,02:05:35,0.000,0.0,0.0,0.0
14/04/2023,02:06:34,0.000,0.0,0.0,0.0
14/04/2023,02:07:35,0.000,0.0,0.0,0.0
14/04/2023,02:08:35,0.000,0.0,0.0,0.0
14/04/2023,02:09:35,0.000,0.0,0.0,0.0
14/04/2023,02:10:57,0.001,0.0,0.0,0.0
14/04/2023,02:12:35,-0.000,0.0,0.0,0.0
14/04/2023,02:13:35,0.000,0.0,0.0,0.0
14/04/2023,02:14:35,0.000,0.0,0.0,0.0
14/04/2023,02:15:35,0.000,0.0,0.0,0.0
14/04/2023,02:16:35,0.000,0.0,0.0,0.0
14/04/2023,02:17:36,0.001,0.0,0.0,0.0
14/04/2023,02:18:34,0.000,0.0,0.0,0.0
14/04/2023,02:19:35,0.000,0.0,0.0,0.0
14/04/2023,02:20:35,0.000,0.0,0.0,0.0
14/04/2023,02:21:35,0.000,0.0,0.0,0.0
14/04/2023,02:22:35,-0.000,0.0,0.0,0.0
14/04/2023,02:23:35,0.001,0.0,0.0,0.0
14/04/2023,02:24:35,-0.000,0.0,0.0,0.0
14/04/2023,02:25:35,-0.000,0.0,0.0,0.0
14/04/2023,02:26:35,0.000,0.0,0.0,0.0
14/04/2023,02:27:37,0.000,0.0,0.0,0.0
14/04/2023,02:28:37,0.000,0.0,0.0,0.0
14/04/2023,02:29:35,0.000,0.0,0.0,0.0
14/04/2023,02:30:35,0.000,0.0,0.0,0.0
14/04/2023,02:31:35,0.000,0.0,0.0,0.0
14/04/2023,02:32:35,0.001,0.0,0.0,0.0
14/04/2023,02:33:35,0.000,0.0,0.0,0.0
14/04/2023,02:34:35,0.000,0.0,0.0,0.0
14/04/2023,02:35:35,0.000,0.0,0.0,0.0
14/04/2023,02:36:35,0.000,0.0,0.0,0.0
14/04/2023,02:37:35,-0.000,0.0,0.0,0.0
14/04/2023,02:38:35,0.000,0.0,0.0,0.0
14/04/2023,02:39:36,0.000,0.0,0.0,0.0
14/04/2023,02:40:35,0.000,0.0,0.0,0.0
14/04/2023,02:41:35,0.000,0.0,0.0,0.0
14/04/2023,02:42:35,0.001,0.0,0.0,0.0
14/04/2023,02:43:35,0.000,0.0,0.0,0.0
14/04/2023,02:44:35,0.000,0.0,0.0,0.0
14/04/2023,02:45:35,-0.000,0.0,0.0,0.0
14/04/2023,02:46:35,0.000,0.0,0.0,0.0
14/04/2023,02:47:35,0.000,0.0,0.0,0.0
14/04/2023,02:48:35,-0.000,0.0,0.0,0.0
14/04/2023,02:49:35,-0.000,0.0,0.0,0.0
14/04/2023,02:50:35,0.001,0.0,0.0,0.0
14/04/2023,02:51:35,0.000,0.0,0.0,0.0
14/04/2023,02:52:35,0.001,0.0,0.0,0.0
14/04/2023,02:53:35,0.000,0.0,0.0,0.0
14/04/2023,02:54:35,0.000,0.0,0.0,0.0
14/04/2023,02:55:35,0.001,0.0,0.0,0.0
14/04/2023,02:56:35,-0.000,0.0,0.0,0.0
14/04/2023,02:57:35,0.000,0.0,0.0,0.0
14/04/2023,02:58:35,0.000,0.0,0.0,0.0
14/04/2023,02:59:35,0.001,0.0,0.0,0.0
14/04/2023,03:00:35,-0.000,0.0,0.0,0.0
14/04/2023,03:01:35,0.000,0.0,0.0,0.0
14/04/2023,03:02:35,-0.000,0.0,0.0,0.0
14/04/2023,03:03:35,0.000,0.0,0.0,0.0
14/04/2023,03:04:35,0.000,0.0,0.0,0.0
14/04/2023,03:05:35,0.000,0.0,0.0,0.0
14/04/2023,03:06:35,0.001,0.0,0.0,0.0
14/04/2023,03:07:35,0.000,0.0,0.0,0.0
14/04/2023,03:08:35,0.000,0.0,0.0,0.0
14/04/2023,03:09:36,-0.000,0.0,0.0,0.0
14/04/2023,03:10:35,-0.000,0.0,0.0,0.0
14/04/2023,03:11:35,0.000,0.0,0.0,0.0
14/04/2023,03:12:35,0.000,0.0,0.0,0.0
14/04/2023,03:13:35,-0.000,0.0,0.0,0.0
14/04/2023,03:14:35,-0.000,0.0,0.0,0.0
14/04/2023,03:15:35,-0.000,0.0,0.0,0.0
14/04/2023,03:16:35,0.000,0.0,0.0,0.0
14/04/2023,03:17:35,-0.000,0.0,0.0,0.0
14/04/2023,03:18:35,-0.000,0.0,0.0,0.0
14/04/2023,03:19:36,-0.000,0.0,0.0,0.0
14/04/2023,03:20:35,0.000,0.0,0.0,0.0
14/04/2023,03:21:35,0.001,0.0,0.0,0.0
14/04/2023,03:22:36,0.000,0.0,0.0,0.0
14/04/2023,03:23:35,0.000,0.0,0.0,0.0
14/04/2023,03:24:35,0.000,0.0,0.0,0.0
14/04/2023,03:25:35,0.000,0.0,0.0,0.0
14/04/2023,03:26:35,0.001,0.0,0.0,0.0
14/04/2023,03:27:35,0.000,0.0,0.0,0.0
14/04/2023,03:28:35,0.001,0.0,0.0,0.0
14/04/2023,03:29:35,0.000,0.0,0.0,0.0
14/04/2023,03:30:35,0.000,0.0,0.0,0.0
14/04/2023,03:31:35,0.000,0.0,0.0,0.0
14/04/2023,03:32:35,0.000,0.0,0.0,0.0
14/04/2023,03:33:35,0.001,0.0,0.0,0.0
14/04/2023,03:34:35,0.000,0.0,0.0,0.0
14/04/2023,03:35:35,0.000,0.0,0.0,0.0
14/04/2023,03:36:35,0.000,0.0,0.0,0.0
14/04/2023,03:37:35,-0.000,0.0,0.0,0.0
14/04/2023,03:38:35,0.000,0.0,0.0,0.0
14/04/2023,03:39:35,0.000,0.0,0.0,0.0
14/04/2023,03:40:35,0.000,0.0,0.0,0.0
14/04/2023,03:41:35,0.001,0.0,0.0,0.0
14/04/2023,03:42:35,0.000,0.0,0.0,0.0
14/04/2023,03:43:35,-0.000,0.0,0.0,0.0
14/04/2023,03:44:35,0.000,0.0,0.0,0.0
14/04/2023,03:45:35,0.000,0.0,0.0,0.0
14/04/2023,03:46:36,0.001,0.0,0.0,0.0
14/04/2023,03:47:35,0.000,0.0,0.0,0.0
14/04/2023,03:48:35,0.000,0.0,0.0,0.0
14/04/2023,03:49:35,0.000,0.0,0.0,0.0
14/04/2023,03:50:35,0.000,0.0,0.0,0.0
14/04/2023,03:51:36,0.001,0.0,0.0,0.0
14/04/2023,03:52:35,0.000,0.0,0.0,0.0
14/04/2023,03:53:35,0.000,0.0,0.0,0.0
14/04/2023,03:54:35,-0.000,0.0,0.0,0.0
14/04/2023,03:55:35,0.000,0.0,0.0,0.0
14/04/2023,03:56:35,0.000,0.0,0.0,0.0
14/04/2023,03:57:36,-0.000,0.0,0.0,0.0
14/04/2023,03:58:36,0.000,0.0,0.0,0.0
14/04/2023,03:59:35,0.000,0.0,0.0,0.0
14/04/2023,04:00:35,0.000,0.0,0.0,0.0
14/04/2023,04:01:36,0.000,0.0,0.0,0.0
14/04/2023,04:02:36,0.000,0.0,0.0,0.0
14/04/2023,04:03:36,-0.000,0.0,0.0,0.0
14/04/2023,04:04:36,0.000,0.0,0.0,0.0
14/04/2023,04:05:35,0.000,0.0,0.0,0.0
14/04/2023,04:06:35,-0.000,0.0,0.0,0.0
14/04/2023,04:07:35,0.000,0.0,0.0,0.0
14/04/2023,04:08:35,0.000,0.0,0.0,0.0
14/04/2023,04:09:35,-0.000,0.0,0.0,0.0
14/04/2023,04:10:35,0.000,0.0,0.0,0.0
14/04/2023,04:11:35,0.000,0.0,0.0,0.0
14/04/2023,04:12:37,0.000,0.0,0.0,0.0
14/04/2023,04:13:36,0.000,0.0,0.0,0.0
14/04/2023,04:14:35,0.000,0.0,0.0,0.0
14/04/2023,04:15:35,0.000,0.0,0.0,0.0
14/04/2023,04:16:35,0.000,0.0,0.0,0.0
14/04/2023,04:17:35,0.000,0.0,0.0,0.0
14/04/2023,04:18:35,-0.000,0.0,0.0,0.0
14/04/2023,04:19:35,0.000,0.0,0.0,0.0
14/04/2023,04:20:36,0.000,0.0,0.0,0.0
14/04/2023,04:21:35,0.000,0.0,0.0,0.0
14/04/2023,04:22:36,-0.000,0.0,0.0,0.0
14/04/2023,04:23:36,0.001,0.0,0.0,0.0
14/04/2023,04:24:36,0.000,0.0,0.0,0.0
14/04/2023,04:25:35,0.000,0.0,0.0,0.0
14/04/2023,04:26:35,0.000,0.0,0.0,0.0
14/04/2023,04:27:35,0.000,0.0,0.0,0.0
14/04/2023,04:28:35,-0.000,0.0,0.0,0.0
14/04/2023,04:29:35,-0.000,0.0,0.0,0.0
14/04/2023,04:30:35,0.000,0.0,0.0,0.0
14/04/2023,04:31:35,0.000,0.0,0.0,0.0
14/04/2023,04:32:36,-0.000,0.0,0.0,0.0
14/04/2023,04:33:36,0.000,0.0,0.0,0.0
14/04/2023,04:34:35,0.000,0.0,0.0,0.0
14/04/2023,04:35:36,0.000,0.0,0.0,0.0
14/04/2023,04:36:35,-0.000,0.0,0.0,0.0
14/04/2023,04:37:36,0.000,0.0,0.0,0.0
14/04/2023,04:38:35,0.000,0.0,0.0,0.0
14/04/2023,04:39:35,0.000,0.0,0.0,0.0
14/04/2023,04:40:36,0.000,0.0,0.0,0.0
14/04/2023,04:41:35,0.001,0.0,0.0,0.0
14/04/2023,04:42:36,-0.000,0.0,0.0,0.0
14/04/2023,04:43:36,0.000,0.0,0.0,0.0
14/04/2023,04:44:36,-0.000,0.0,0.0,0.0
14/04/2023,04:45:35,-0.000,0.0,0.0,0.0
14/04/2023,04:46:36,0.000,0.0,0.0,0.0
14/04/2023,04:47:36,0.000,0.0,0.0,0.0
14/04/2023,04:48:35,0.000,0.0,0.0,0.0
14/04/2023,04:49:35,0.000,0.0,0.0,0.0
14/04/2023,04:50:35,0.001,0.0,0.0,0.0
14/04/2023,04:51:35,0.000,0.0,0.0,0.0
14/04/2023,04:52:36,0.000,0.0,0.0,0.0
14/04/2023,04:53:35,0.000,0.0,0.0,0.0
14/04/2023,04:54:36,0.000,0.0,0.0,0.0
14/04/2023,04:55:36,0.000,0.0,0.0,0.0
14/04/2023,04:56:35,0.001,0.0,0.0,0.0
14/04/2023,04:57:35,0.000,0.0,0.0,0.0
14/04/2023,04:58:35,0.001,0.0,0.0,0.0
14/04/2023,04:59:35,0.001,0.0,0.0,0.0
14/04/2023,05:00:35,0.001,0.0,0.0,0.0
14/04/2023,05:01:35,0.001,0.0,0.0,0.0
14/04/2023,05:02:35,0.000,0.0,0.0,0.0
14/04/2023,05:03:36,-0.000,0.0,0.0,0.0
14/04/2023,05:04:36,0.001,0.0,0.0,0.0
14/04/2023,05:05:36,0.001,0.0,0.0,0.0
14/04/2023,05:06:35,0.001,0.0,0.0,0.0
14/04/2023,05:07:36,0.002,0.0,0.0,0.0
14/04/2023,05:08:35,0.001,0.0,0.0,0.0
14/04/2023,05:09:36,0.001,0.0,0.0,0.0
14/04/2023,05:10:35,0.002,0.0,0.0,0.0
14/04/2023,05:11:35,0.001,0.0,0.0,0.0
14/04/2023,05:12:36,0.001,0.0,0.0,0.0
14/04/2023,05:13:36,0.002,0.0,0.0,0.0
14/04/2023,05:14:35,0.002,0.0,0.0,0.0
14/04/2023,05:15:35,0.003,0.0,0.0,0.0
14/04/2023,05:16:35,0.002,0.0,0.0,0.0
14/04/2023,05:17:35,0.002,0.0,0.0,0.0
14/04/2023,05:18:35,0.003,0.0,0.0,0.0
14/04/2023,05:19:36,0.003,0.0,0.0,0.0
14/04/2023,05:20:36,0.003,0.0,0.0,0.0
14/04/2023,05:21:36,0.002,0.0,0.0,0.0
14/04/2023,05:22:36,0.003,0.0,0.0,0.0
14/04/2023,05:23:36,0.003,0.0,0.0,0.0
14/04/2023,05:24:36,0.004,0.0,0.0,0.0
14/04/2023,05:25:36,0.002,0.0,0.0,0.0
14/04/2023,05:26:35,0.003,0.0,0.0,0.0
14/04/2023,05:27:35,0.004,0.0,0.0,0.0
14/04/2023,05:28:35,0.003,0.0,0.0,0.0
14/04/2023,05:29:35,0.004,0.0,0.0,0.0
14/04/2023,05:30:35,0.004,0.0,0.0,0.0
14/04/2023,05:31:35,0.004,0.0,0.0,0.0
14/04/2023,05:32:36,0.004,0.0,0.0,0.0
14/04/2023,05:33:35,0.004,0.0,0.0,0.0
14/04/2023,05:34:36,0.004,0.0,0.0,0.0
14/04/2023,05:35:35,0.005,0.0,0.0,0.0
14/04/2023,05:36:35,0.005,0.0,0.0,0.0
14/04/2023,05:37:35,0.005,0.0,0.0,0.0
14/04/2023,05:38:35,0.005,0.0,0.0,0.0
14/04/2023,05:39:36,0.004,0.0,0.0,0.0
14/04/2023,05:40:36,0.005,0.0,0.0,0.0
14/04/2023,05:41:35,0.006,0.0,0.0,0.0
14/04/2023,05:42:35,0.005,0.0,0.0,0.0
14/04/2023,05:43:35,0.005,0.0,0.0,0.0
14/04/2023,05:44:35,0.006,0.0,0.0,0.0
14/04/2023,05:45:36,0.006,0.0,0.0,0.0
14/04/2023,05:46:35,0.006,0.0,0.0,0.0
14/04/2023,05:47:36,0.006,0.0,0.0,0.0
14/04/2023,05:48:35,0.006,0.0,0.0,0.0
14/04/2023,05:49:35,0.005,0.0,0.0,0.0
14/04/2023,05:50:35,0.007,0.0,0.0,0.0
14/04/2023,05:51:35,0.008,0.0,0.0,0.0
14/04/2023,05:52:36,0.008,0.0,0.001,0.001
14/04/2023,05:53:36,0.009,0.0,0.001,0.0
14/04/2023,05:54:35,0.010,0.0,0.001,0.0
14/04/2023,05:55:36,0.010,0.0,0.001,0.0
14/04/2023,05:56:35,0.011,0.0,0.001,0.0
14/04/2023,05:57:36,0.010,0.0,0.001,0.0
14/04/2023,05:58:35,0.011,0.0,0.002,0.001
14/04/2023,05:59:35,0.012,0.0,0.002,0.0
14/04/2023,06:00:35,0.013,0.0,0.002,0.0
14/04/2023,06:01:35,0.013,0.0,0.002,0.0
14/04/2023,06:02:35,0.014,0.0,0.002,0.0
14/04/2023,06:03:35,0.014,0.0,0.003,0.001
14/04/2023,06:04:36,0.015,0.0,0.003,0.0
14/04/2023,06:05:35,0.014,0.0,0.003,0.0
14/04/2023,06:06:35,0.015,0.0,0.003,0.0
14/04/2023,06:07:35,0.015,0.0,0.004,0.001
14/04/2023,06:08:36,0.015,0.0,0.004,0.0
14/04/2023,06:09:35,0.014,0.0,0.004,0.0
14/04/2023,06:10:36,0.013,0.0,0.004,0.0
14/04/2023,06:11:35,0.013,0.0,0.005,0.001
14/04/2023,06:12:35,0.012,0.0,0.005,0.0
14/04/2023,06:13:36,0.010,0.0,0.005,0.0
14/04/2023,06:14:36,0.011,0.0,0.005,0.0
14/04/2023,06:15:36,0.012,0.0,0.005,0.0
14/04/2023,06:16:35,0.011,0.0,0.006,0.001
14/04/2023,06:17:35,0.011,0.0,0.006,0.0
14/04/2023,06:18:35,0.011,0.0,0.006,0.0
14/04/2023,06:19:35,0.011,0.0,0.006,0.0
14/04/2023,06:20:35,0.011,0.0,0.006,0.0
14/04/2023,06:21:35,0.012,0.0,0.007,0.001
14/04/2023,06:22:35,0.011,0.0,0.007,0.0
14/04/2023,06:23:36,0.011,0.0,0.007,0.0
14/04/2023,06:24:36,0.009,0.0,0.007,0.0
14/04/2023,06:25:36,0.012,0.0,0.007,0.0
14/04/2023,06:26:36,0.014,0.0,0.007,0.0
14/04/2023,06:27:35,0.017,0.0,0.008,0.001
14/04/2023,06:28:36,0.018,0.0,0.008,0.0
14/04/2023,06:29:36,0.019,0.0,0.008,0.0
14/04/2023,06:30:35,0.022,0.0,0.009,0.001
14/04/2023,06:31:35,0.024,0.0,0.009,0.0
14/04/2023,06:32:35,0.025,0.0,0.009,0.0
14/04/2023,06:33:36,0.026,0.0,0.01,0.001
14/04/2023,06:34:40,0.028,0.0,0.01,0.0
14/04/2023,06:35:36,0.029,0.0,0.011,0.001
14/04/2023,06:36:35,0.029,0.0,0.011,0.0
14/04/2023,06:37:35,0.029,0.0,0.012,0.001
14/04/2023,06:38:35,0.030,0.0,0.012,0.0
14/04/2023,06:39:35,0.031,0.0,0.013,0.001
14/04/2023,06:40:35,0.032,0.0,0.013,0.0
14/04/2023,06:41:36,0.033,0.0,0.014,0.001
14/04/2023,06:42:36,0.034,0.0,0.014,0.0
14/04/2023,06:43:35,0.035,0.0,0.015,0.001
14/04/2023,06:44:35,0.035,0.0,0.016,0.001
14/04/2023,06:45:36,0.036,0.0,0.016,0.0
14/04/2023,06:46:35,0.036,0.0,0.017,0.001
14/04/2023,06:47:36,0.036,0.0,0.017,0.0
14/04/2023,06:48:36,0.037,0.0,0.018,0.001
14/04/2023,06:49:36,0.038,0.0,0.019,0.001
14/04/2023,06:50:35,0.039,0.0,0.019,0.0
14/04/2023,06:51:36,0.040,0.0,0.02,0.001
14/04/2023,06:52:35,0.040,0.0,0.02,0.0
14/04/2023,06:53:36,0.040,0.0,0.021,0.001
14/04/2023,06:54:36,0.041,0.0,0.022,0.001
14/04/2023,06:55:36,0.042,0.0,0.023,0.001
14/04/2023,06:56:36,0.043,0.0,0.023,0.0
14/04/2023,06:57:35,0.043,0.0,0.024,0.001
14/04/2023,06:58:36,0.042,0.0,0.025,0.001
14/04/2023,06:59:36,0.042,0.0,0.025,0.0
14/04/2023,07:00:36,0.043,0.0,0.026,0.001
14/04/2023,07:01:36,0.047,0.0,0.027,0.001
14/04/2023,07:02:36,0.050,0.0,0.028,0.001
14/04/2023,07:03:35,0.054,0.0,0.028,0.0
14/04/2023,07:04:36,0.058,0.0,0.029,0.001
14/04/2023,07:05:35,0.059,0.0,0.03,0.001
14/04/2023,07:06:36,0.061,0.0,0.031,0.001
14/04/2023,07:07:36,0.062,0.0,0.032,0.001
14/04/2023,07:08:36,0.065,0.0,0.034,0.002
14/04/2023,07:09:36,0.067,0.0,0.035,0.001
14/04/2023,07:10:36,0.069,0.0,0.036,0.001
14/04/2023,07:11:35,0.071,0.0,0.037,0.001
14/04/2023,07:12:36,0.073,0.0,0.038,0.001
14/04/2023,07:13:35,0.075,0.0,0.039,0.001
14/04/2023,07:14:35,0.079,0.0,0.041,0.002
14/04/2023,07:15:36,0.083,0.0,0.042,0.001
14/04/2023,07:16:35,0.085,0.0,0.043,0.001
14/04/2023,07:17:36,0.089,0.0,0.045,0.002
14/04/2023,07:18:36,0.093,0.0,0.046,0.001
14/04/2023,07:19:35,0.099,0.0,0.048,0.002
14/04/2023,07:20:35,0.101,0.0,0.05,0.002
14/04/2023,07:21:35,0.099,0.0,0.051,0.001
14/04/2023,07:22:35,0.094,0.0,0.053,0.002
14/04/2023,07:23:35,0.094,0.0,0.054,0.001
14/04/2023,07:24:35,0.101,0.0,0.056,0.002
14/04/2023,07:25:35,0.109,0.0,0.058,0.002
14/04/2023,07:26:35,0.114,0.0,0.06,0.002
14/04/2023,07:27:36,0.115,0.0,0.062,0.002
14/04/2023,07:28:36,0.117,0.0,0.064,0.002
14/04/2023,07:29:36,0.117,0.0,0.065,0.001
14/04/2023,07:30:35,0.118,0.0,0.067,0.002
14/04/2023,07:31:35,0.121,0.0,0.069,0.002
14/04/2023,07:32:35,0.128,0.0,0.071,0.002
14/04/2023,07:33:35,0.138,0.0,0.074,0.003
14/04/2023,07:34:36,0.146,0.0,0.076,0.002
14/04/2023,07:35:35,0.153,0.0,0.079,0.003
14/04/2023,07:36:36,0.157,0.0,0.081,0.002
14/04/2023,07:37:36,0.163,0.0,0.084,0.003
14/04/2023,07:38:36,0.160,0.0,0.087,0.003
14/04/2023,07:39:36,0.146,0.0,0.089,0.002
14/04/2023,07:40:36,0.132,0.0,0.091,0.002
14/04/2023,07:41:36,0.136,0.0,0.094,0.003
14/04/2023,07:42:36,0.158,0.0,0.096,0.002
14/04/2023,07:43:36,0.171,0.0,0.099,0.003
14/04/2023,07:44:36,0.180,0.0,0.102,0.003
14/04/2023,07:45:37,0.189,0.0,0.105,0.003
14/04/2023,07:46:35,0.192,0.0,0.108,0.003
14/04/2023,07:47:35,0.192,0.0,0.111,0.003
14/04/2023,07:48:35,0.198,0.0,0.114,0.003
14/04/2023,07:49:35,0.203,0.0,0.118,0.004
14/04/2023,07:50:35,0.213,0.0,0.121,0.003
14/04/2023,07:51:33,0.219,1.0,0.125,0.004
14/04/2023,07:52:35,0.222,1.0,0.128,0.003
14/04/2023,07:53:35,0.218,1.0,0.132,0.004
14/04/2023,07:54:35,0.214,0.0,0.136,0.004
14/04/2023,07:55:36,0.211,0.0,0.139,0.003
14/04/2023,07:56:36,0.206,0.0,0.143,0.004
14/04/2023,07:57:36,0.197,0.0,0.146,0.003
14/04/2023,07:58:36,0.187,0.0,0.149,0.003
14/04/2023,07:59:35,0.179,0.0,0.152,0.003
14/04/2023,08:00:35,0.176,0.0,0.155,0.003
14/04/2023,08:01:36,0.179,0.0,0.158,0.003
14/04/2023,08:02:36,0.188,0.0,0.161,0.003
14/04/2023,08:03:35,0.193,0.0,0.165,0.004
14/04/2023,08:04:36,0.201,0.0,0.168,0.003
14/04/2023,08:05:36,0.204,0.0,0.171,0.003
14/04/2023,08:06:36,0.196,0.0,0.175,0.004
14/04/2023,08:07:36,0.181,0.0,0.178,0.003
14/04/2023,08:08:36,0.176,0.0,0.181,0.003
14/04/2023,08:09:36,0.190,0.0,0.184,0.003
14/04/2023,08:10:36,0.209,0.0,0.187,0.003
14/04/2023,08:11:36,0.224,1.0,0.191,0.004
14/04/2023,08:12:36,0.232,1.0,0.195,0.004
14/04/2023,08:13:36,0.237,1.0,0.198,0.003
14/04/2023,08:14:36,0.238,1.0,0.202,0.004
14/04/2023,08:15:36,0.237,1.0,0.206,0.004
14/04/2023,08:16:35,0.237,1.0,0.21,0.004
14/04/2023,08:17:36,0.236,1.0,0.214,0.004
14/04/2023,08:18:36,0.234,1.0,0.218,0.004
14/04/2023,08:19:36,0.235,1.0,0.222,0.004
14/04/2023,08:20:36,0.239,1.0,0.226,0.004
14/04/2023,08:21:36,0.243,1.0,0.23,0.004
14/04/2023,08:22:36,0.247,1.0,0.234,0.004
14/04/2023,08:23:35,0.248,1.0,0.238,0.004
14/04/2023,08:24:35,0.245,1.0,0.242,0.004
14/04/2023,08:25:36,0.241,1.0,0.246,0.004
14/04/2023,08:26:36,0.235,1.0,0.25,0.004
14/04/2023,08:27:35,0.232,1.0,0.254,0.004
14/04/2023,08:28:35,0.235,1.0,0.258,0.004
14/04/2023,08:29:36,0.246,1.0,0.262,0.004
14/04/2023,08:30:36,0.263,1.0,0.266,0.004
14/04/2023,08:31:36,0.292,1.0,0.271,0.005
14/04/2023,08:32:35,0.318,1.0,0.276,0.005
14/04/2023,08:33:35,0.344,1.0,0.282,0.006
14/04/2023,08:34:35,0.363,1.0,0.288,0.006
14/04/2023,08:35:35,0.376,1.0,0.294,0.006
14/04/2023,08:36:35,0.374,1.0,0.3,0.006
14/04/2023,08:37:36,0.372,1.0,0.306,0.006
14/04/2023,08:38:35,0.366,1.0,0.312,0.006
14/04/2023,08:39:36,0.364,1.0,0.318,0.006
14/04/2023,08:40:36,0.367,1.0,0.325,0.007
14/04/2023,08:41:36,0.360,1.0,0.331,0.006
14/04/2023,08:42:35,0.344,1.0,0.337,0.006
14/04/2023,08:43:35,0.327,1.0,0.342,0.005
14/04/2023,08:44:36,0.343,1.0,0.348,0.006
14/04/2023,08:45:36,0.354,1.0,0.354,0.006
14/04/2023,08:46:36,0.359,1.0,0.36,0.006
14/04/2023,08:47:36,0.331,1.0,0.365,0.005
14/04/2023,08:48:36,0.341,1.0,0.371,0.006
14/04/2023,08:49:36,0.363,1.0,0.377,0.006
14/04/2023,08:50:36,0.379,1.0,0.383,0.006
14/04/2023,08:51:36,0.381,1.0,0.389,0.006
14/04/2023,08:52:36,0.308,1.0,0.395,0.006
14/04/2023,08:53:36,0.267,1.0,0.4,0.005
14/04/2023,08:54:36,0.230,1.0,0.404,0.004
14/04/2023,08:55:36,0.223,1.0,0.408,0.004
14/04/2023,08:56:36,0.207,0.0,0.411,0.003
14/04/2023,08:57:36,0.190,0.0,0.415,0.004
14/04/2023,08:58:36,0.167,0.0,0.418,0.003
14/04/2023,08:59:36,0.139,0.0,0.42,0.002
14/04/2023,09:00:36,0.120,0.0,0.422,0.002
14/04/2023,09:01:35,0.114,0.0,0.424,0.002
14/04/2023,09:02:35,0.112,0.0,0.426,0.002
14/04/2023,09:03:36,0.119,0.0,0.428,0.002
14/04/2023,09:04:35,0.135,0.0,0.43,0.002
14/04/2023,09:05:35,0.155,0.0,0.432,0.002
14/04/2023,09:06:35,0.170,0.0,0.435,0.003
14/04/2023,09:07:35,0.186,0.0,0.438,0.003
14/04/2023,09:08:36,0.183,0.0,0.441,0.003
14/04/2023,09:09:38,0.174,0.0,0.444,0.003
14/04/2023,09:10:36,0.172,0.0,0.447,0.003
14/04/2023,09:11:35,0.152,0.0,0.45,0.003
14/04/2023,09:12:35,0.142,0.0,0.452,0.002
14/04/2023,09:13:35,0.146,0.0,0.455,0.003
14/04/2023,09:14:35,0.161,0.0,0.457,0.002
14/04/2023,09:15:36,0.171,0.0,0.46,0.003
14/04/2023,09:16:36,0.174,0.0,0.463,0.003
14/04/2023,09:17:36,0.193,0.0,0.466,0.003
14/04/2023,09:18:36,0.192,0.0,0.469,0.003
14/04/2023,09:19:35,0.162,0.0,0.472,0.003
14/04/2023,09:20:36,0.140,0.0,0.475,0.003
14/04/2023,09:21:36,0.134,0.0,0.477,0.002
14/04/2023,09:22:36,0.128,0.0,0.479,0.002
14/04/2023,09:23:36,0.128,0.0,0.481,0.002
14/04/2023,09:24:36,0.147,0.0,0.483,0.002
14/04/2023,09:25:35,0.200,0.0,0.486,0.003
14/04/2023,09:26:36,0.261,1.0,0.49,0.004
14/04/2023,09:27:35,0.294,1.0,0.495,0.005
14/04/2023,09:28:35,0.272,1.0,0.5,0.005
14/04/2023,09:29:36,0.249,1.0,0.504,0.004
14/04/2023,09:30:36,0.265,1.0,0.508,0.004
14/04/2023,09:31:36,0.279,1.0,0.513,0.005
14/04/2023,09:32:36,0.289,1.0,0.518,0.005
14/04/2023,09:33:36,0.307,1.0,0.523,0.005
14/04/2023,09:34:36,0.374,1.0,0.528,0.005
14/04/2023,09:35:35,0.452,1.0,0.535,0.007
14/04/2023,09:36:36,0.523,1.0,0.543,0.008
14/04/2023,09:37:36,0.614,1.0,0.553,0.01
14/04/2023,09:38:36,0.739,2.0,0.564,0.011
14/04/2023,09:39:36,0.758,2.0,0.577,0.013
14/04/2023,09:40:36,0.791,2.0,0.59,0.013
14/04/2023,09:41:36,0.795,2.0,0.603,0.013
14/04/2023,09:42:35,0.793,2.0,0.616,0.013
14/04/2023,09:43:36,0.798,2.0,0.63,0.014
14/04/2023,09:44:36,0.797,2.0,0.643,0.013
14/04/2023,09:45:36,0.797,2.0,0.656,0.013
14/04/2023,09:46:36,0.804,2.0,0.669,0.013
14/04/2023,09:47:36,0.805,2.0,0.683,0.014
14/04/2023,09:48:36,0.780,2.0,0.696,0.013
14/04/2023,09:49:36,0.797,2.0,0.709,0.013
14/04/2023,09:50:35,0.720,2.0,0.722,0.013
14/04/2023,09:51:35,0.694,2.0,0.734,0.012
14/04/2023,09:52:35,0.646,1.0,0.745,0.011
14/04/2023,09:54:05,0.657,2.0,0.761,0.016
14/04/2023,09:55:36,0.591,1.0,0.777,0.016
14/04/2023,09:56:36,0.539,1.0,0.787,0.01
14/04/2023,09:57:36,0.484,1.0,0.795,0.008
14/04/2023,09:58:35,0.431,1.0,0.803,0.008
14/04/2023,09:59:35,0.392,1.0,0.81,0.007
14/04/2023,10:00:35,0.365,1.0,0.816,0.006
14/04/2023,10:01:36,0.354,1.0,0.822,0.006
14/04/2023,10:02:35,0.332,1.0,0.828,0.006
14/04/2023,10:03:35,0.313,1.0,0.833,0.005
14/04/2023,10:04:35,0.292,1.0,0.838,0.005
14/04/2023,10:05:36,0.281,1.0,0.843,0.005
14/04/2023,10:06:36,0.304,1.0,0.848,0.005